This demonstration page uses our WeatherBlox Daily Observations layout. Learn more.

Hourly Observations for July 31, 2017

Temp ( °F °C ) Dew Point ( °F °C ) Humidity (%) Winds ( mph kmh ) Pressure ( in mb ) Visibility ( mi km ) Precip ( " mm )
12:15 am 00:15 Clear 67 19.5 64 17.6 89 89 S 9 15 30.09 1019 10 16.09344 0 0
12:35 am 00:35 Clear 68 19.8 64 17.5 87 87 S 6 9 30.09 1019 10 16.09344 0 0
12:55 am 00:55 Clear 68 20 63 17.1 83 83 SSE 6 9 30.09 1019 10 16.09344 0 0
1:15 am 01:15 Partly Cloudy 68 19.8 63 17.2 85 85 S 5 7 30.09 1019 10 16.09344 0 0
1:35 am 01:35 Cloudy 68 20 63 17.1 83 83 SSE 3 6 30.09 1019 10 16.09344 0 0
1:55 am 01:55 Cloudy 69 20.4 63 17.4 83 83 SE 3 6 30.09 1019 10 16.09344 0 0
2:15 am 02:15 Cloudy 69 20.5 63 17.4 82 82 SSE 5 7 30.09 1019 10 16.09344 0 0
2:35 am 02:35 Cloudy 69 20.3 64 17.6 85 85 S 5 7 30.09 1019 10 16.09344 0 0
2:55 am 02:55 Cloudy 69 20.3 64 17.6 85 85 SE 3 6 30.09 1019 10 16.09344 0 0
3:15 am 03:15 Cloudy 69 20.4 64 17.5 84 84 ESE 5 7 30.09 1019 10 16.09344 0 0
3:35 am 03:35 Cloudy with Rain 68 20.1 63 17 82 82 ESE 5 7 30.09 1019 10 16.09344 0 0
3:55 am 03:55 Cloudy with Drizzle 67 19.5 64 17.5 88 88 E 3 6 30.09 1019 10 16.09344 0 0
4:15 am 04:15 Cloudy with Light Rain 67 19.3 64 17.6 90 90 SE 5 7 30.09 1019 10 16.09344 0.01 0.254
4:35 am 04:35 Cloudy with Light Rain 67 19.3 64 17.5 89 89 SE 5 7 30.09 1019 10 16.09344 0.01 0.254
4:55 am 04:55 Cloudy 66 19.1 63 17.3 89 89 SE 5 7 30.09 1019 10 16.09344 0.01 0.254
5:15 am 05:15 Cloudy 67 19.5 63 17.1 86 86 SE 7 11 30.06 1018 10 16.09344 0 0
5:35 am 05:35 Cloudy 67 19.3 63 17 87 87 Calm 30.06 1018 10 16.09344 0 0
5:55 am 05:55 Cloudy 67 19.2 63 17.4 89 89 SE 3 6 30.06 1018 10 16.09344 0 0
6:15 am 06:15 Cloudy 67 19.2 63 17.4 89 89 S 7 11 30.06 1018 10 16.09344 0 0
6:35 am 06:35 Cloudy 66 19 63 17.1 89 89 SE 5 7 30.09 1019 10 16.09344 0 0
6:55 am 06:55 Cloudy 67 19.5 63 17 86 86 SSE 5 7 30.09 1019 10 16.09344 0 0
7:15 am 07:15 Cloudy 67 19.3 63 17.1 87 87 SSE 5 7 30.09 1019 10 16.09344 0 0
7:35 am 07:35 Cloudy 67 19.6 63 17.1 86 86 Calm 30.09 1019 10 16.09344 0 0
7:55 am 07:55 Cloudy 67 19.7 62 16.6 82 82 S 5 7 30.09 1019 10 16.09344 0 0
8:15 am 08:15 Partly Cloudy 68 19.8 61 16.3 80 80 S 8 13 30.09 1019 10 16.09344 0 0
8:35 am 08:35 Sunny 69 20.5 62 16.5 78 78 S 9 15 30.09 1019 10 16.09344 0 0
8:55 am 08:55 Sunny 70 21 62 16.8 77 77 S 10 17 30.09 1019 10 16.09344 0 0
9:15 am 09:15 Sunny 71 21.7 62 16.8 74 74 S 14 22 30.06 1018 10 16.09344 0 0
9:35 am 09:35 Sunny 72 22.2 62 16.9 72 72 S 14 22 30.06 1018 10 16.09344 0 0
9:55 am 09:55 Sunny 73 22.7 62 16.9 70 70 S 13 20 30.06 1018 10 16.09344 0 0
10:15 am 10:15 Sunny 73 23 63 17.2 70 70 SSW 12 19 30.06 1018 10 16.09344 0 0
10:35 am 10:35 Sunny 74 23.6 63 17 67 67 S 12 19 30.06 1018 10 16.09344 0 0
10:55 am 10:55 Sunny 75 24 63 17.4 67 67 S 13 20 30.06 1018 10 16.09344 0 0
11:15 am 11:15 Sunny 76 24.6 64 17.6 65 65 SSW 13 20 30.06 1018 10 16.09344 0 0
11:35 am 11:35 Partly Cloudy 77 24.8 64 17.6 64 64 S 10 17 30.06 1018 10 16.09344 0 0
11:55 am 11:55 Mostly Cloudy 77 24.8 64 17.6 64 64 SSW 9 15 30.06 1018 10 16.09344 0 0
12:15 pm 12:15 Cloudy 77 24.9 64 17.8 65 65 SSW 12 19 30.03 1017 10 16.09344 0 0
12:35 pm 12:35 Cloudy 78 25.5 65 18.2 64 64 SW 9 15 30.03 1017 10 16.09344 0 0
12:55 pm 12:55 Mostly Cloudy 78 25.4 65 18.2 64 64 S 9 15 30.03 1017 10 16.09344 0 0
1:15 pm 13:15 Partly Cloudy 79 26 65 18.4 63 63 SW 8 13 30.03 1017 10 16.09344 0 0
1:35 pm 13:35 Partly Cloudy 79 26 65 18.6 64 64 S 10 17 30.03 1017 10 16.09344 0 0
1:55 pm 13:55 Mostly Cloudy 80 26.7 65 18.3 60 60 S 6 9 30.03 1017 10 16.09344 0 0
2:15 pm 14:15 Mostly Cloudy 80 26.9 66 18.8 61 61 S 7 11 30 1016 10 16.09344 0 0
2:35 pm 14:35 Cloudy 80 26.7 65 18.6 61 61 S 7 11 30 1016 10 16.09344 0 0
2:55 pm 14:55 Mostly Cloudy 81 27.2 66 19.1 61 61 SSE 9 15 30 1016 10 16.09344 0 0
3:15 pm 15:15 Partly Cloudy 81 27.2 66 19 61 61 S 10 17 30 1016 10 16.09344 0 0
3:35 pm 15:35 Mostly Cloudy 81 27.3 66 18.8 60 60 SSE 7 11 30 1016 10 16.09344 0 0
3:55 pm 15:55 Cloudy 79 26.3 65 18.6 63 63 SSE 8 13 30 1016 10 16.09344 0 0
4:15 pm 16:15 Partly Cloudy 81 27 66 18.9 61 61 SSE 13 20 30 1016 10 16.09344 0 0
4:35 pm 16:35 Sunny 82 27.5 66 19.1 60 60 S 14 22 29.97 1015 10 16.09344 0 0
4:55 pm 16:55 Sunny 81 27.3 66 18.8 60 60 S 14 22 29.97 1015 10 16.09344 0 0
5:15 pm 17:15 Sunny 81 27.2 66 18.7 60 60 SSE 13 20 29.97 1015 10 16.09344 0 0
5:35 pm 17:35 Sunny 81 27 66 18.8 61 61 SSE 14 22 29.97 1015 10 16.09344 0 0
5:55 pm 17:55 Sunny 81 27 65 18.5 60 60 SSE 12 19 29.97 1015 10 16.09344 0 0
6:15 pm 18:15 Sunny 80 26.6 65 18.4 61 61 SSE 13 20 29.97 1015 10 16.09344 0 0
6:35 pm 18:35 Sunny 80 26.5 65 18.5 62 62 SSE 10 17 29.97 1015 10 16.09344 0 0
6:55 pm 18:55 Sunny 79 26.1 65 18.3 62 62 SSE 14 22 29.97 1015 10 16.09344 0 0
7:15 pm 19:15 Sunny 78 25.7 65 18.5 65 65 SSE 12 19 29.97 1015 10 16.09344 0 0
7:35 pm 19:35 Sunny 78 25.4 65 18.1 64 64 SSE 14 22 29.97 1015 10 16.09344 0 0
7:55 pm 19:55 Sunny 77 24.9 65 18.1 66 66 SSE 9 15 29.97 1015 10 16.09344 0 0
8:15 pm 20:15 Sunny 75 24.1 65 18.3 70 70 SSE 8 13 30 1016 10 16.09344 0 0
8:35 pm 20:35 Sunny 74 23.4 65 18.3 73 73 SSE 8 13 30 1016 10 16.09344 0 0
8:55 pm 20:55 Sunny 73 22.8 64 18 74 74 SSE 9 15 30 1016 10 16.09344 0 0
9:15 pm 21:15 Clear 72 22.2 65 18.1 78 78 SSE 8 13 30 1016 10 16.09344 0 0
9:35 pm 21:35 Clear 71 21.8 65 18.2 80 80 SSE 9 15 30 1016 10 16.09344 0 0
9:55 pm 21:55 Clear 70 21.3 64 18 82 82 SSE 8 13 30.03 1017 10 16.09344 0 0
10:15 pm 22:15 Clear 70 20.9 64 18 84 84 SSE 7 11 30.06 1018 10 16.09344 0 0
10:35 pm 22:35 Clear 69 20.5 64 18 86 86 SSE 8 13 30.06 1018 10 16.09344 0 0
10:55 pm 22:55 Clear 68 20.1 64 17.7 86 86 SSE 7 11 30.06 1018 10 16.09344 0 0
11:15 pm 23:15 Clear 68 20 64 17.7 87 87 SSE 8 13 30.06 1018 10 16.09344 0 0
11:35 pm 23:35 Clear 67 19.6 64 17.7 89 89 S 6 9 30.09 1019 10 16.09344 0 0
11:55 pm 23:55 Partly Cloudy 67 19.5 64 17.6 89 89 S 6 9 30.09 1019 10 16.09344 0 0

Powered by AerisWeather